owner,sensor,date,latitude,longitude,vertical_datum,sea_water_temperature,qcFlag 
NERRS,ioos:station:NOAA.NERRS:gndbhwq:1,2016-05-01T00:45:00Z,30.4178,-88.4054,0.0,24.1,2 
NERRS,ioos:station:NOAA.NERRS:gndbhwq:1,2016-05-01T01:45:00Z,30.4178,-88.4054,0.0,25.2,2 
NERRS,ioos:station:NOAA.NERRS:gndbhwq:1,2016-05-01T02:45:00Z,30.4178,-88.4054,0.0,25.0,2 
NERRS,ioos:station:NOAA.NERRS:gndbhwq:1,2016-05-01T03:45:00Z,30.4178,-88.4054,0.0,24.4,2 
NERRS,ioos:station:NOAA.NERRS:gndbhwq:1,2016-05-01T04:45:00Z,30.4178,-88.4054,0.0,24.5,2 
NERRS,ioos:station:NOAA.NERRS:gndbhwq:1,2016-05-01T05:45:00Z,30.4178,-88.4054,0.0,24.6,2 
NERRS,ioos:station:NOAA.NERRS:gndbhwq:1,2016-05-01T06:45:00Z,30.4178,-88.4054,0.0,24.6,2 
NERRS,ioos:station:NOAA.NERRS:gndbhwq:1,2016-05-01T07:45:00Z,30.4178,-88.4054,0.0,24.6,2 
NERRS,ioos:station:NOAA.NERRS:gndbhwq:1,2016-05-01T08:45:00Z,30.4178,-88.4054,0.0,24.6,2 
NERRS,ioos:station:NOAA.NERRS:gndbhwq:1,2016-05-01T09:45:00Z,30.4178,-88.4054,0.0,24.8,2 
NERRS,ioos:station:NOAA.NERRS:gndbhwq:1,2016-05-01T10:45:00Z,30.4178,-88.4054,0.0,24.8,2 
NERRS,ioos:station:NOAA.NERRS:gndbhwq:1,2016-05-01T11:45:00Z,30.4178,-88.4054,0.0,24.8,2 
NERRS,ioos:station:NOAA.NERRS:gndbhwq:1,2016-05-01T12:45:00Z,30.4178,-88.4054,0.0,24.8,2 
NERRS,ioos:station:NOAA.NERRS:gndbhwq:1,2016-05-01T13:45:00Z,30.4178,-88.4054,0.0,24.8,2 
NERRS,ioos:station:NOAA.NERRS:gndbhwq:1,2016-05-01T14:45:00Z,30.4178,-88.4054,0.0,24.8,2 
NERRS,ioos:station:NOAA.NERRS:gndbhwq:1,2016-05-01T15:45:00Z,30.4178,-88.4054,0.0,24.7,2 
NERRS,ioos:station:NOAA.NERRS:gndbhwq:1,2016-05-01T16:45:00Z,30.4178,-88.4054,0.0,24.7,2 
NERRS,ioos:station:NOAA.NERRS:gndbhwq:1,2016-05-01T17:45:00Z,30.4178,-88.4054,0.0,24.7,2 
NERRS,ioos:station:NOAA.NERRS:gndbhwq:1,2016-05-01T18:45:00Z,30.4178,-88.4054,0.0,24.7,2 
NERRS,ioos:station:NOAA.NERRS:gndbhwq:1,2016-05-01T19:45:00Z,30.4178,-88.4054,0.0,24.6,2 
NERRS,ioos:station:NOAA.NERRS:gndbhwq:1,2016-05-01T20:45:00Z,30.4178,-88.4054,0.0,24.7,2 
NERRS,ioos:station:NOAA.NERRS:gndbhwq:1,2016-05-01T21:45:00Z,30.4178,-88.4054,0.0,24.6,2 
NERRS,ioos:station:NOAA.NERRS:gndbhwq:1,2016-05-01T22:45:00Z,30.4178,-88.4054,0.0,24.5,2 
NERRS,ioos:station:NOAA.NERRS:gndbhwq:1,2016-05-01T23:45:00Z,30.4178,-88.4054,0.0,24.6,2 
NERRS,ioos:station:NOAA.NERRS:gndbhwq:1,2016-05-02T00:45:00Z,30.4178,-88.4054,0.0,24.4,2 
NERRS,ioos:station:NOAA.NERRS:gndbhwq:1,2016-05-02T01:45:00Z,30.4178,-88.4054,0.0,24.4,2 
NERRS,ioos:station:NOAA.NERRS:gndbhwq:1,2016-05-02T02:45:00Z,30.4178,-88.4054,0.0,24.5,2 
NERRS,ioos:station:NOAA.NERRS:gndbhwq:1,2016-05-02T03:45:00Z,30.4178,-88.4054,0.0,24.4,2 
NERRS,ioos:station:NOAA.NERRS:gndbhwq:1,2016-05-02T04:45:00Z,30.4178,-88.4054,0.0,24.3,2 
NERRS,ioos:station:NOAA.NERRS:gndbhwq:1,2016-05-02T05:45:00Z,30.4178,-88.4054,0.0,24.3,2 
NERRS,ioos:station:NOAA.NERRS:gndbhwq:1,2016-05-02T06:45:00Z,30.4178,-88.4054,0.0,24.3,2 
NERRS,ioos:station:NOAA.NERRS:gndbhwq:1,2016-05-02T07:45:00Z,30.4178,-88.4054,0.0,24.3,2 
NERRS,ioos:station:NOAA.NERRS:gndbhwq:1,2016-05-02T08:45:00Z,30.4178,-88.4054,0.0,24.3,2 
NERRS,ioos:station:NOAA.NERRS:gndbhwq:1,2016-05-02T09:45:00Z,30.4178,-88.4054,0.0,24.3,2 
NERRS,ioos:station:NOAA.NERRS:gndbhwq:1,2016-05-02T10:45:00Z,30.4178,-88.4054,0.0,24.3,2 
NERRS,ioos:station:NOAA.NERRS:gndbhwq:1,2016-05-02T11:45:00Z,30.4178,-88.4054,0.0,24.3,2 
NERRS,ioos:station:NOAA.NERRS:gndbhwq:1,2016-05-02T12:45:00Z,30.4178,-88.4054,0.0,24.3,2 
NERRS,ioos:station:NOAA.NERRS:gndbhwq:1,2016-05-02T13:45:00Z,30.4178,-88.4054,0.0,24.3,2 
NERRS,ioos:station:NOAA.NERRS:gndbhwq:1,2016-05-02T14:45:00Z,30.4178,-88.4054,0.0,24.3,2 
NERRS,ioos:station:NOAA.NERRS:gndbhwq:1,2016-05-02T15:45:00Z,30.4178,-88.4054,0.0,24.4,2 
NERRS,ioos:station:NOAA.NERRS:gndbhwq:1,2016-05-02T16:45:00Z,30.4178,-88.4054,0.0,24.3,2 
NERRS,ioos:station:NOAA.NERRS:gndbhwq:1,2016-05-02T17:45:00Z,30.4178,-88.4054,0.0,24.3,2 
NERRS,ioos:station:NOAA.NERRS:gndbhwq:1,2016-05-02T18:45:00Z,30.4178,-88.4054,0.0,24.3,2 
NERRS,ioos:station:NOAA.NERRS:gndbhwq:1,2016-05-02T19:45:00Z,30.4178,-88.4054,0.0,24.3,2 
NERRS,ioos:station:NOAA.NERRS:gndbhwq:1,2016-05-02T20:45:00Z,30.4178,-88.4054,0.0,24.3,2 
NERRS,ioos:station:NOAA.NERRS:gndbhwq:1,2016-05-02T21:45:00Z,30.4178,-88.4054,0.0,24.3,2 
NERRS,ioos:station:NOAA.NERRS:gndbhwq:1,2016-05-02T22:45:00Z,30.4178,-88.4054,0.0,24.3,2 
NERRS,ioos:station:NOAA.NERRS:gndbhwq:1,2016-05-02T23:45:00Z,30.4178,-88.4054,0.0,24.3,2 
NERRS,ioos:station:NOAA.NERRS:gndbhwq:1,2016-05-03T00:45:00Z,30.4178,-88.4054,0.0,24.3,2 
NERRS,ioos:station:NOAA.NERRS:gndbhwq:1,2016-05-03T01:45:00Z,30.4178,-88.4054,0.0,24.3,2 
NERRS,ioos:station:NOAA.NERRS:gndbhwq:1,2016-05-03T02:45:00Z,30.4178,-88.4054,0.0,24.3,2 
NERRS,ioos:station:NOAA.NERRS:gndbhwq:1,2016-05-03T03:45:00Z,30.4178,-88.4054,0.0,24.2,2 
NERRS,ioos:station:NOAA.NERRS:gndbhwq:1,2016-05-03T04:45:00Z,30.4178,-88.4054,0.0,24.2,2 
NERRS,ioos:station:NOAA.NERRS:gndbhwq:1,2016-05-03T05:45:00Z,30.4178,-88.4054,0.0,24.2,2 
NERRS,ioos:station:NOAA.NERRS:gndbhwq:1,2016-05-03T06:45:00Z,30.4178,-88.4054,0.0,24.2,2 
NERRS,ioos:station:NOAA.NERRS:gndbhwq:1,2016-05-03T07:45:00Z,30.4178,-88.4054,0.0,24.2,2 
NERRS,ioos:station:NOAA.NERRS:gndbhwq:1,2016-05-03T08:45:00Z,30.4178,-88.4054,0.0,24.2,2 
NERRS,ioos:station:NOAA.NERRS:gndbhwq:1,2016-05-03T09:45:00Z,30.4178,-88.4054,0.0,24.2,2 
NERRS,ioos:station:NOAA.NERRS:gndbhwq:1,2016-05-03T10:45:00Z,30.4178,-88.4054,0.0,24.2,2 
NERRS,ioos:station:NOAA.NERRS:gndbhwq:1,2016-05-03T11:45:00Z,30.4178,-88.4054,0.0,24.2,2 
NERRS,ioos:station:NOAA.NERRS:gndbhwq:1,2016-05-03T12:45:00Z,30.4178,-88.4054,0.0,24.1,2 
NERRS,ioos:station:NOAA.NERRS:gndbhwq:1,2016-05-03T13:45:00Z,30.4178,-88.4054,0.0,24.1,2 
NERRS,ioos:station:NOAA.NERRS:gndbhwq:1,2016-05-03T14:45:00Z,30.4178,-88.4054,0.0,24.1,2 
NERRS,ioos:station:NOAA.NERRS:gndbhwq:1,2016-05-03T15:45:00Z,30.4178,-88.4054,0.0,24.1,2 
NERRS,ioos:station:NOAA.NERRS:gndbhwq:1,2016-05-03T16:45:00Z,30.4178,-88.4054,0.0,24.2,2 
NERRS,ioos:station:NOAA.NERRS:gndbhwq:1,2016-05-03T17:45:00Z,30.4178,-88.4054,0.0,24.1,2 
NERRS,ioos:station:NOAA.NERRS:gndbhwq:1,2016-05-03T18:45:00Z,30.4178,-88.4054,0.0,24.1,2 
NERRS,ioos:station:NOAA.NERRS:gndbhwq:1,2016-05-03T19:45:00Z,30.4178,-88.4054,0.0,24.1,2 
NERRS,ioos:station:NOAA.NERRS:gndbhwq:1,2016-05-03T20:45:00Z,30.4178,-88.4054,0.0,24.1,2 
NERRS,ioos:station:NOAA.NERRS:gndbhwq:1,2016-05-03T21:45:00Z,30.4178,-88.4054,0.0,24.1,2 
NERRS,ioos:station:NOAA.NERRS:gndbhwq:1,2016-05-03T22:45:00Z,30.4178,-88.4054,0.0,24.1,2 
NERRS,ioos:station:NOAA.NERRS:gndbhwq:1,2016-05-03T23:45:00Z,30.4178,-88.4054,0.0,24.1,2 
NERRS,ioos:station:NOAA.NERRS:gndbhwq:1,2016-05-04T00:45:00Z,30.4178,-88.4054,0.0,24.1,2 
NERRS,ioos:station:NOAA.NERRS:gndbhwq:1,2016-05-04T01:45:00Z,30.4178,-88.4054,0.0,24.1,2 
NERRS,ioos:station:NOAA.NERRS:gndbhwq:1,2016-05-04T02:45:00Z,30.4178,-88.4054,0.0,24.2,2 
NERRS,ioos:station:NOAA.NERRS:gndbhwq:1,2016-05-04T03:45:00Z,30.4178,-88.4054,0.0,24.4,2 
NERRS,ioos:station:NOAA.NERRS:gndbhwq:1,2016-05-04T04:45:00Z,30.4178,-88.4054,0.0,24.6,2 
NERRS,ioos:station:NOAA.NERRS:gndbhwq:1,2016-05-04T05:45:00Z,30.4178,-88.4054,0.0,24.1,2 
NERRS,ioos:station:NOAA.NERRS:gndbhwq:1,2016-05-04T06:45:00Z,30.4178,-88.4054,0.0,24.7,2 
NERRS,ioos:station:NOAA.NERRS:gndbhwq:1,2016-05-04T07:45:00Z,30.4178,-88.4054,0.0,24.2,2 
NERRS,ioos:station:NOAA.NERRS:gndbhwq:1,2016-05-04T08:45:00Z,30.4178,-88.4054,0.0,24.6,2 
NERRS,ioos:station:NOAA.NERRS:gndbhwq:1,2016-05-04T09:45:00Z,30.4178,-88.4054,0.0,24.6,2 
NERRS,ioos:station:NOAA.NERRS:gndbhwq:1,2016-05-04T10:45:00Z,30.4178,-88.4054,0.0,24.7,2 
NERRS,ioos:station:NOAA.NERRS:gndbhwq:1,2016-05-04T11:45:00Z,30.4178,-88.4054,0.0,24.7,2 
NERRS,ioos:station:NOAA.NERRS:gndbhwq:1,2016-05-04T12:45:00Z,30.4178,-88.4054,0.0,24.8,2 
NERRS,ioos:station:NOAA.NERRS:gndbhwq:1,2016-05-04T13:45:00Z,30.4178,-88.4054,0.0,24.8,2 
NERRS,ioos:station:NOAA.NERRS:gndbhwq:1,2016-05-04T14:45:00Z,30.4178,-88.4054,0.0,24.8,2 
NERRS,ioos:station:NOAA.NERRS:gndbhwq:1,2016-05-04T15:45:00Z,30.4178,-88.4054,0.0,24.8,2 
NERRS,ioos:station:NOAA.NERRS:gndbhwq:1,2016-05-04T16:45:00Z,30.4178,-88.4054,0.0,24.9,2 
NERRS,ioos:station:NOAA.NERRS:gndbhwq:1,2016-05-04T17:45:00Z,30.4178,-88.4054,0.0,24.9,2 
NERRS,ioos:station:NOAA.NERRS:gndbhwq:1,2016-05-04T18:45:00Z,30.4178,-88.4054,0.0,24.9,2 
NERRS,ioos:station:NOAA.NERRS:gndbhwq:1,2016-05-04T19:45:00Z,30.4178,-88.4054,0.0,24.9,2 
NERRS,ioos:station:NOAA.NERRS:gndbhwq:1,2016-05-04T20:45:00Z,30.4178,-88.4054,0.0,25.0,2 
NERRS,ioos:station:NOAA.NERRS:gndbhwq:1,2016-05-04T21:45:00Z,30.4178,-88.4054,0.0,25.0,2 
NERRS,ioos:station:NOAA.NERRS:gndbhwq:1,2016-05-04T22:45:00Z,30.4178,-88.4054,0.0,25.1,2 
NERRS,ioos:station:NOAA.NERRS:gndbhwq:1,2016-05-04T23:45:00Z,30.4178,-88.4054,0.0,25.1,2 
NERRS,ioos:station:NOAA.NERRS:gndbhwq:1,2016-05-05T00:45:00Z,30.4178,-88.4054,0.0,25.1,2 
NERRS,ioos:station:NOAA.NERRS:gndbhwq:1,2016-05-05T01:45:00Z,30.4178,-88.4054,0.0,25.1,2 
NERRS,ioos:station:NOAA.NERRS:gndbhwq:1,2016-05-05T02:45:00Z,30.4178,-88.4054,0.0,25.1,2 
NERRS,ioos:station:NOAA.NERRS:gndbhwq:1,2016-05-05T03:45:00Z,30.4178,-88.4054,0.0,25.0,2 
NERRS,ioos:station:NOAA.NERRS:gndbhwq:1,2016-05-05T04:45:00Z,30.4178,-88.4054,0.0,25.0,2 
NERRS,ioos:station:NOAA.NERRS:gndbhwq:1,2016-05-05T05:45:00Z,30.4178,-88.4054,0.0,25.0,2 
NERRS,ioos:station:NOAA.NERRS:gndbhwq:1,2016-05-05T06:45:00Z,30.4178,-88.4054,0.0,24.9,2 
NERRS,ioos:station:NOAA.NERRS:gndbhwq:1,2016-05-05T07:45:00Z,30.4178,-88.4054,0.0,24.8,2 
NERRS,ioos:station:NOAA.NERRS:gndbhwq:1,2016-05-05T08:45:00Z,30.4178,-88.4054,0.0,24.8,2 
NERRS,ioos:station:NOAA.NERRS:gndbhwq:1,2016-05-05T09:45:00Z,30.4178,-88.4054,0.0,24.8,2 
NERRS,ioos:station:NOAA.NERRS:gndbhwq:1,2016-05-05T10:45:00Z,30.4178,-88.4054,0.0,24.8,2 
NERRS,ioos:station:NOAA.NERRS:gndbhwq:1,2016-05-05T11:45:00Z,30.4178,-88.4054,0.0,24.9,2 
NERRS,ioos:station:NOAA.NERRS:gndbhwq:1,2016-05-05T12:45:00Z,30.4178,-88.4054,0.0,24.8,2 
NERRS,ioos:station:NOAA.NERRS:gndbhwq:1,2016-05-05T13:45:00Z,30.4178,-88.4054,0.0,24.9,2 
NERRS,ioos:station:NOAA.NERRS:gndbhwq:1,2016-05-05T14:45:00Z,30.4178,-88.4054,0.0,24.9,2 
NERRS,ioos:station:NOAA.NERRS:gndbhwq:1,2016-05-05T15:45:00Z,30.4178,-88.4054,0.0,25.0,2 
NERRS,ioos:station:NOAA.NERRS:gndbhwq:1,2016-05-05T16:45:00Z,30.4178,-88.4054,0.0,25.0,2 
NERRS,ioos:station:NOAA.NERRS:gndbhwq:1,2016-05-05T17:45:00Z,30.4178,-88.4054,0.0,25.1,2 
NERRS,ioos:station:NOAA.NERRS:gndbhwq:1,2016-05-05T18:45:00Z,30.4178,-88.4054,0.0,25.0,2 
NERRS,ioos:station:NOAA.NERRS:gndbhwq:1,2016-05-05T19:45:00Z,30.4178,-88.4054,0.0,25.1,2 
NERRS,ioos:station:NOAA.NERRS:gndbhwq:1,2016-05-05T20:45:00Z,30.4178,-88.4054,0.0,25.1,2 
NERRS,ioos:station:NOAA.NERRS:gndbhwq:1,2016-05-05T21:45:00Z,30.4178,-88.4054,0.0,25.0,2 
NERRS,ioos:station:NOAA.NERRS:gndbhwq:1,2016-05-05T22:45:00Z,30.4178,-88.4054,0.0,23.9,2 
NERRS,ioos:station:NOAA.NERRS:gndbhwq:1,2016-05-05T23:45:00Z,30.4178,-88.4054,0.0,23.8,2 
NERRS,ioos:station:NOAA.NERRS:gndbhwq:1,2016-05-06T00:45:00Z,30.4178,-88.4054,0.0,23.7,2 
NERRS,ioos:station:NOAA.NERRS:gndbhwq:1,2016-05-06T01:45:00Z,30.4178,-88.4054,0.0,23.8,2 
NERRS,ioos:station:NOAA.NERRS:gndbhwq:1,2016-05-06T02:45:00Z,30.4178,-88.4054,0.0,23.8,2 
NERRS,ioos:station:NOAA.NERRS:gndbhwq:1,2016-05-06T03:45:00Z,30.4178,-88.4054,0.0,23.8,2 
NERRS,ioos:station:NOAA.NERRS:gndbhwq:1,2016-05-06T04:45:00Z,30.4178,-88.4054,0.0,23.9,2 
NERRS,ioos:station:NOAA.NERRS:gndbhwq:1,2016-05-06T05:45:00Z,30.4178,-88.4054,0.0,23.9,2 
NERRS,ioos:station:NOAA.NERRS:gndbhwq:1,2016-05-06T06:45:00Z,30.4178,-88.4054,0.0,24.0,2 
NERRS,ioos:station:NOAA.NERRS:gndbhwq:1,2016-05-06T07:45:00Z,30.4178,-88.4054,0.0,24.0,2 
NERRS,ioos:station:NOAA.NERRS:gndbhwq:1,2016-05-06T08:45:00Z,30.4178,-88.4054,0.0,24.0,2 
NERRS,ioos:station:NOAA.NERRS:gndbhwq:1,2016-05-06T09:45:00Z,30.4178,-88.4054,0.0,24.1,2 
NERRS,ioos:station:NOAA.NERRS:gndbhwq:1,2016-05-06T10:45:00Z,30.4178,-88.4054,0.0,24.1,2 
NERRS,ioos:station:NOAA.NERRS:gndbhwq:1,2016-05-06T11:45:00Z,30.4178,-88.4054,0.0,24.2,2 
NERRS,ioos:station:NOAA.NERRS:gndbhwq:1,2016-05-06T12:45:00Z,30.4178,-88.4054,0.0,24.2,2 
NERRS,ioos:station:NOAA.NERRS:gndbhwq:1,2016-05-06T13:45:00Z,30.4178,-88.4054,0.0,24.4,2 
NERRS,ioos:station:NOAA.NERRS:gndbhwq:1,2016-05-06T14:45:00Z,30.4178,-88.4054,0.0,24.4,2 
NERRS,ioos:station:NOAA.NERRS:gndbhwq:1,2016-05-06T15:45:00Z,30.4178,-88.4054,0.0,24.4,2 
NERRS,ioos:station:NOAA.NERRS:gndbhwq:1,2016-05-06T16:45:00Z,30.4178,-88.4054,0.0,24.5,2 
NERRS,ioos:station:NOAA.NERRS:gndbhwq:1,2016-05-06T17:45:00Z,30.4178,-88.4054,0.0,24.6,2 
NERRS,ioos:station:NOAA.NERRS:gndbhwq:1,2016-05-06T18:45:00Z,30.4178,-88.4054,0.0,24.7,2 
NERRS,ioos:station:NOAA.NERRS:gndbhwq:1,2016-05-06T19:45:00Z,30.4178,-88.4054,0.0,24.7,2 
NERRS,ioos:station:NOAA.NERRS:gndbhwq:1,2016-05-06T20:45:00Z,30.4178,-88.4054,0.0,24.7,2 
NERRS,ioos:station:NOAA.NERRS:gndbhwq:1,2016-05-06T21:45:00Z,30.4178,-88.4054,0.0,24.8,2 
NERRS,ioos:station:NOAA.NERRS:gndbhwq:1,2016-05-06T22:45:00Z,30.4178,-88.4054,0.0,24.7,2 
NERRS,ioos:station:NOAA.NERRS:gndbhwq:1,2016-05-06T23:45:00Z,30.4178,-88.4054,0.0,24.8,2 
NERRS,ioos:station:NOAA.NERRS:gndbhwq:1,2016-05-07T00:45:00Z,30.4178,-88.4054,0.0,24.7,2 
NERRS,ioos:station:NOAA.NERRS:gndbhwq:1,2016-05-07T01:45:00Z,30.4178,-88.4054,0.0,24.7,2 
NERRS,ioos:station:NOAA.NERRS:gndbhwq:1,2016-05-07T02:45:00Z,30.4178,-88.4054,0.0,24.8,2 
NERRS,ioos:station:NOAA.NERRS:gndbhwq:1,2016-05-07T03:45:00Z,30.4178,-88.4054,0.0,24.8,2 
NERRS,ioos:station:NOAA.NERRS:gndbhwq:1,2016-05-07T04:45:00Z,30.4178,-88.4054,0.0,24.7,2 
NERRS,ioos:station:NOAA.NERRS:gndbhwq:1,2016-05-07T05:45:00Z,30.4178,-88.4054,0.0,24.8,2 
NERRS,ioos:station:NOAA.NERRS:gndbhwq:1,2016-05-07T06:45:00Z,30.4178,-88.4054,0.0,24.9,2 
NERRS,ioos:station:NOAA.NERRS:gndbhwq:1,2016-05-07T07:45:00Z,30.4178,-88.4054,0.0,24.8,2 
NERRS,ioos:station:NOAA.NERRS:gndbhwq:1,2016-05-07T08:45:00Z,30.4178,-88.4054,0.0,24.8,2 
NERRS,ioos:station:NOAA.NERRS:gndbhwq:1,2016-05-07T09:45:00Z,30.4178,-88.4054,0.0,24.6,2 
NERRS,ioos:station:NOAA.NERRS:gndbhwq:1,2016-05-07T10:45:00Z,30.4178,-88.4054,0.0,24.7,2 
NERRS,ioos:station:NOAA.NERRS:gndbhwq:1,2016-05-07T11:45:00Z,30.4178,-88.4054,0.0,24.8,2 
NERRS,ioos:station:NOAA.NERRS:gndbhwq:1,2016-05-07T12:45:00Z,30.4178,-88.4054,0.0,24.7,2 
NERRS,ioos:station:NOAA.NERRS:gndbhwq:1,2016-05-07T13:45:00Z,30.4178,-88.4054,0.0,24.8,2 
NERRS,ioos:station:NOAA.NERRS:gndbhwq:1,2016-05-07T14:45:00Z,30.4178,-88.4054,0.0,24.9,2 
NERRS,ioos:station:NOAA.NERRS:gndbhwq:1,2016-05-07T15:45:00Z,30.4178,-88.4054,0.0,25.0,2 
NERRS,ioos:station:NOAA.NERRS:gndbhwq:1,2016-05-07T16:45:00Z,30.4178,-88.4054,0.0,25.0,2 
NERRS,ioos:station:NOAA.NERRS:gndbhwq:1,2016-05-07T17:45:00Z,30.4178,-88.4054,0.0,25.1,2 
NERRS,ioos:station:NOAA.NERRS:gndbhwq:1,2016-05-07T18:45:00Z,30.4178,-88.4054,0.0,25.2,2 
NERRS,ioos:station:NOAA.NERRS:gndbhwq:1,2016-05-07T19:45:00Z,30.4178,-88.4054,0.0,25.1,2 
NERRS,ioos:station:NOAA.NERRS:gndbhwq:1,2016-05-07T20:45:00Z,30.4178,-88.4054,0.0,25.0,2 
NERRS,ioos:station:NOAA.NERRS:gndbhwq:1,2016-05-07T21:45:00Z,30.4178,-88.4054,0.0,25.1,2 
NERRS,ioos:station:NOAA.NERRS:gndbhwq:1,2016-05-07T22:45:00Z,30.4178,-88.4054,0.0,25.1,2 
NERRS,ioos:station:NOAA.NERRS:gndbhwq:1,2016-05-07T23:45:00Z,30.4178,-88.4054,0.0,25.1,2 
NERRS,ioos:station:NOAA.NERRS:gndbhwq:1,2016-05-08T00:45:00Z,30.4178,-88.4054,0.0,25.1,2 
NERRS,ioos:station:NOAA.NERRS:gndbhwq:1,2016-05-08T01:45:00Z,30.4178,-88.4054,0.0,24.9,2 
NERRS,ioos:station:NOAA.NERRS:gndbhwq:1,2016-05-08T02:45:00Z,30.4178,-88.4054,0.0,25.0,2 
NERRS,ioos:station:NOAA.NERRS:gndbhwq:1,2016-05-08T03:45:00Z,30.4178,-88.4054,0.0,25.1,2 
NERRS,ioos:station:NOAA.NERRS:gndbhwq:1,2016-05-08T04:45:00Z,30.4178,-88.4054,0.0,25.1,2 
NERRS,ioos:station:NOAA.NERRS:gndbhwq:1,2016-05-08T05:45:00Z,30.4178,-88.4054,0.0,24.9,2 
NERRS,ioos:station:NOAA.NERRS:gndbhwq:1,2016-05-08T06:45:00Z,30.4178,-88.4054,0.0,25.1,2 
NERRS,ioos:station:NOAA.NERRS:gndbhwq:1,2016-05-08T07:45:00Z,30.4178,-88.4054,0.0,25.3,2 
NERRS,ioos:station:NOAA.NERRS:gndbhwq:1,2016-05-08T08:45:00Z,30.4178,-88.4054,0.0,25.2,2 
NERRS,ioos:station:NOAA.NERRS:gndbhwq:1,2016-05-08T09:45:00Z,30.4178,-88.4054,0.0,25.1,2 
NERRS,ioos:station:NOAA.NERRS:gndbhwq:1,2016-05-08T10:45:00Z,30.4178,-88.4054,0.0,25.3,2 
NERRS,ioos:station:NOAA.NERRS:gndbhwq:1,2016-05-08T11:45:00Z,30.4178,-88.4054,0.0,25.3,2 
NERRS,ioos:station:NOAA.NERRS:gndbhwq:1,2016-05-08T12:45:00Z,30.4178,-88.4054,0.0,25.4,2 
NERRS,ioos:station:NOAA.NERRS:gndbhwq:1,2016-05-08T13:45:00Z,30.4178,-88.4054,0.0,25.4,2 
NERRS,ioos:station:NOAA.NERRS:gndbhwq:1,2016-05-08T14:45:00Z,30.4178,-88.4054,0.0,25.6,2 
NERRS,ioos:station:NOAA.NERRS:gndbhwq:1,2016-05-08T15:45:00Z,30.4178,-88.4054,0.0,25.5,2 
NERRS,ioos:station:NOAA.NERRS:gndbhwq:1,2016-05-08T16:45:00Z,30.4178,-88.4054,0.0,25.5,2 
NERRS,ioos:station:NOAA.NERRS:gndbhwq:1,2016-05-08T17:45:00Z,30.4178,-88.4054,0.0,25.5,2 
NERRS,ioos:station:NOAA.NERRS:gndbhwq:1,2016-05-08T18:45:00Z,30.4178,-88.4054,0.0,25.4,2 
NERRS,ioos:station:NOAA.NERRS:gndbhwq:1,2016-05-08T19:45:00Z,30.4178,-88.4054,0.0,25.7,2 
NERRS,ioos:station:NOAA.NERRS:gndbhwq:1,2016-05-08T20:45:00Z,30.4178,-88.4054,0.0,25.9,2 
NERRS,ioos:station:NOAA.NERRS:gndbhwq:1,2016-05-08T21:45:00Z,30.4178,-88.4054,0.0,26.5,2 
NERRS,ioos:station:NOAA.NERRS:gndbhwq:1,2016-05-08T22:45:00Z,30.4178,-88.4054,0.0,26.5,2 
NERRS,ioos:station:NOAA.NERRS:gndbhwq:1,2016-05-08T23:45:00Z,30.4178,-88.4054,0.0,26.5,2 
NERRS,ioos:station:NOAA.NERRS:gndbhwq:1,2016-05-09T00:45:00Z,30.4178,-88.4054,0.0,26.1,2 
NERRS,ioos:station:NOAA.NERRS:gndbhwq:1,2016-05-09T01:45:00Z,30.4178,-88.4054,0.0,25.9,2 
NERRS,ioos:station:NOAA.NERRS:gndbhwq:1,2016-05-09T02:45:00Z,30.4178,-88.4054,0.0,25.8,2 
NERRS,ioos:station:NOAA.NERRS:gndbhwq:1,2016-05-09T03:45:00Z,30.4178,-88.4054,0.0,26.2,2 
NERRS,ioos:station:NOAA.NERRS:gndbhwq:1,2016-05-09T04:45:00Z,30.4178,-88.4054,0.0,26.5,2 
NERRS,ioos:station:NOAA.NERRS:gndbhwq:1,2016-05-09T05:45:00Z,30.4178,-88.4054,0.0,26.2,2 
NERRS,ioos:station:NOAA.NERRS:gndbhwq:1,2016-05-09T06:45:00Z,30.4178,-88.4054,0.0,26.5,2 
NERRS,ioos:station:NOAA.NERRS:gndbhwq:1,2016-05-09T07:45:00Z,30.4178,-88.4054,0.0,26.1,2 
NERRS,ioos:station:NOAA.NERRS:gndbhwq:1,2016-05-09T08:45:00Z,30.4178,-88.4054,0.0,26.4,2 
NERRS,ioos:station:NOAA.NERRS:gndbhwq:1,2016-05-09T09:45:00Z,30.4178,-88.4054,0.0,26.3,2 
NERRS,ioos:station:NOAA.NERRS:gndbhwq:1,2016-05-09T10:45:00Z,30.4178,-88.4054,0.0,26.1,2 
NERRS,ioos:station:NOAA.NERRS:gndbhwq:1,2016-05-09T11:45:00Z,30.4178,-88.4054,0.0,26.1,2 
NERRS,ioos:station:NOAA.NERRS:gndbhwq:1,2016-05-09T12:45:00Z,30.4178,-88.4054,0.0,26.2,2 
NERRS,ioos:station:NOAA.NERRS:gndbhwq:1,2016-05-09T13:45:00Z,30.4178,-88.4054,0.0,26.2,2 
NERRS,ioos:station:NOAA.NERRS:gndbhwq:1,2016-05-09T14:45:00Z,30.4178,-88.4054,0.0,26.2,2 
NERRS,ioos:station:NOAA.NERRS:gndbhwq:1,2016-05-09T15:45:00Z,30.4178,-88.4054,0.0,25.7,2 
NERRS,ioos:station:NOAA.NERRS:gndbhwq:1,2016-05-09T16:45:00Z,30.4178,-88.4054,0.0,25.8,2 
NERRS,ioos:station:NOAA.NERRS:gndbhwq:1,2016-05-09T17:45:00Z,30.4178,-88.4054,0.0,25.9,2 
NERRS,ioos:station:NOAA.NERRS:gndbhwq:1,2016-05-09T18:45:00Z,30.4178,-88.4054,0.0,26.0,2 
NERRS,ioos:station:NOAA.NERRS:gndbhwq:1,2016-05-09T19:45:00Z,30.4178,-88.4054,0.0,26.3,2 
NERRS,ioos:station:NOAA.NERRS:gndbhwq:1,2016-05-09T20:45:00Z,30.4178,-88.4054,0.0,26.4,2 
NERRS,ioos:station:NOAA.NERRS:gndbhwq:1,2016-05-09T21:45:00Z,30.4178,-88.4054,0.0,27.1,2 
NERRS,ioos:station:NOAA.NERRS:gndbhwq:1,2016-05-09T22:45:00Z,30.4178,-88.4054,0.0,27.2,2 
NERRS,ioos:station:NOAA.NERRS:gndbhwq:1,2016-05-09T23:45:00Z,30.4178,-88.4054,0.0,27.5,2 
NERRS,ioos:station:NOAA.NERRS:gndbhwq:1,2016-05-10T00:45:00Z,30.4178,-88.4054,0.0,27.1,2 
NERRS,ioos:station:NOAA.NERRS:gndbhwq:1,2016-05-10T01:45:00Z,30.4178,-88.4054,0.0,26.6,2 
NERRS,ioos:station:NOAA.NERRS:gndbhwq:1,2016-05-10T02:45:00Z,30.4178,-88.4054,0.0,26.6,2 
NERRS,ioos:station:NOAA.NERRS:gndbhwq:1,2016-05-10T03:45:00Z,30.4178,-88.4054,0.0,26.6,2 
NERRS,ioos:station:NOAA.NERRS:gndbhwq:1,2016-05-10T04:45:00Z,30.4178,-88.4054,0.0,26.7,2 
NERRS,ioos:station:NOAA.NERRS:gndbhwq:1,2016-05-10T05:45:00Z,30.4178,-88.4054,0.0,26.1,2 
NERRS,ioos:station:NOAA.NERRS:gndbhwq:1,2016-05-10T06:45:00Z,30.4178,-88.4054,0.0,26.2,2 
NERRS,ioos:station:NOAA.NERRS:gndbhwq:1,2016-05-10T12:45:00Z,30.4178,-88.4054,0.0,25.3,2 
NERRS,ioos:station:NOAA.NERRS:gndbhwq:1,2016-05-10T14:45:00Z,30.4178,-88.4054,0.0,24.8,2 
NERRS,ioos:station:NOAA.NERRS:gndbhwq:1,2016-05-10T15:45:00Z,30.4178,-88.4054,0.0,24.6,2 
NERRS,ioos:station:NOAA.NERRS:gndbhwq:1,2016-05-10T16:45:00Z,30.4178,-88.4054,0.0,24.6,2 
NERRS,ioos:station:NOAA.NERRS:gndbhwq:1,2016-05-10T17:45:00Z,30.4178,-88.4054,0.0,24.5,2 
NERRS,ioos:station:NOAA.NERRS:gndbhwq:1,2016-05-10T18:45:00Z,30.4178,-88.4054,0.0,25.1,2 
NERRS,ioos:station:NOAA.NERRS:gndbhwq:1,2016-05-10T19:45:00Z,30.4178,-88.4054,0.0,25.3,2 
NERRS,ioos:station:NOAA.NERRS:gndbhwq:1,2016-05-10T20:45:00Z,30.4178,-88.4054,0.0,26.1,2 
NERRS,ioos:station:NOAA.NERRS:gndbhwq:1,2016-05-10T21:45:00Z,30.4178,-88.4054,0.0,26.5,2 
NERRS,ioos:station:NOAA.NERRS:gndbhwq:1,2016-05-10T22:45:00Z,30.4178,-88.4054,0.0,26.1,2 
NERRS,ioos:station:NOAA.NERRS:gndbhwq:1,2016-05-10T23:45:00Z,30.4178,-88.4054,0.0,26.4,2 
NERRS,ioos:station:NOAA.NERRS:gndbhwq:1,2016-05-11T00:45:00Z,30.4178,-88.4054,0.0,26.3,2 
NERRS,ioos:station:NOAA.NERRS:gndbhwq:1,2016-05-11T01:45:00Z,30.4178,-88.4054,0.0,26.2,2 
NERRS,ioos:station:NOAA.NERRS:gndbhwq:1,2016-05-11T02:45:00Z,30.4178,-88.4054,0.0,26.1,2 
NERRS,ioos:station:NOAA.NERRS:gndbhwq:1,2016-05-11T03:45:00Z,30.4178,-88.4054,0.0,26.0,2 
NERRS,ioos:station:NOAA.NERRS:gndbhwq:1,2016-05-11T04:45:00Z,30.4178,-88.4054,0.0,26.0,2 
NERRS,ioos:station:NOAA.NERRS:gndbhwq:1,2016-05-11T05:45:00Z,30.4178,-88.4054,0.0,25.6,2 
NERRS,ioos:station:NOAA.NERRS:gndbhwq:1,2016-05-11T06:45:00Z,30.4178,-88.4054,0.0,25.8,2 
NERRS,ioos:station:NOAA.NERRS:gndbhwq:1,2016-05-11T07:45:00Z,30.4178,-88.4054,0.0,26.0,2 
NERRS,ioos:station:NOAA.NERRS:gndbhwq:1,2016-05-11T08:45:00Z,30.4178,-88.4054,0.0,26.0,2 
NERRS,ioos:station:NOAA.NERRS:gndbhwq:1,2016-05-11T09:45:00Z,30.4178,-88.4054,0.0,25.9,2 
NERRS,ioos:station:NOAA.NERRS:gndbhwq:1,2016-05-11T10:45:00Z,30.4178,-88.4054,0.0,25.8,2 
NERRS,ioos:station:NOAA.NERRS:gndbhwq:1,2016-05-11T11:45:00Z,30.4178,-88.4054,0.0,25.7,2 
NERRS,ioos:station:NOAA.NERRS:gndbhwq:1,2016-05-11T12:45:00Z,30.4178,-88.4054,0.0,25.7,2 
NERRS,ioos:station:NOAA.NERRS:gndbhwq:1,2016-05-11T13:45:00Z,30.4178,-88.4054,0.0,25.7,2 
NERRS,ioos:station:NOAA.NERRS:gndbhwq:1,2016-05-11T14:45:00Z,30.4178,-88.4054,0.0,25.9,2 
NERRS,ioos:station:NOAA.NERRS:gndbhwq:1,2016-05-11T16:45:00Z,30.4178,-88.4054,0.0,26.1,2 
NERRS,ioos:station:NOAA.NERRS:gndbhwq:1,2016-05-11T17:45:00Z,30.4178,-88.4054,0.0,25.9,2 
NERRS,ioos:station:NOAA.NERRS:gndbhwq:1,2016-05-11T18:45:00Z,30.4178,-88.4054,0.0,26.1,2 
NERRS,ioos:station:NOAA.NERRS:gndbhwq:1,2016-05-11T20:45:00Z,30.4178,-88.4054,0.0,26.1,2 
NERRS,ioos:station:NOAA.NERRS:gndbhwq:1,2016-05-12T04:45:00Z,30.4178,-88.4054,0.0,25.7,2 
NERRS,ioos:station:NOAA.NERRS:gndbhwq:1,2016-05-12T23:45:00Z,30.4178,-88.4054,0.0,26.0,2 
NERRS,ioos:station:NOAA.NERRS:gndbhwq:1,2016-05-16T14:45:00Z,30.4178,-88.4054,0.0,27.4,2 
NERRS,ioos:station:NOAA.NERRS:gndbhwq:1,2016-05-16T15:45:00Z,30.4178,-88.4054,0.0,27.7,2 
NERRS,ioos:station:NOAA.NERRS:gndbhwq:1,2016-05-16T16:45:00Z,30.4178,-88.4054,0.0,27.6,2 
NERRS,ioos:station:NOAA.NERRS:gndbhwq:1,2016-05-16T17:45:00Z,30.4178,-88.4054,0.0,27.5,2 
NERRS,ioos:station:NOAA.NERRS:gndbhwq:1,2016-05-16T18:45:00Z,30.4178,-88.4054,0.0,27.7,2 
NERRS,ioos:station:NOAA.NERRS:gndbhwq:1,2016-05-16T19:45:00Z,30.4178,-88.4054,0.0,27.6,2 
NERRS,ioos:station:NOAA.NERRS:gndbhwq:1,2016-05-16T20:45:00Z,30.4178,-88.4054,0.0,27.5,2 
NERRS,ioos:station:NOAA.NERRS:gndbhwq:1,2016-05-16T21:45:00Z,30.4178,-88.4054,0.0,27.4,2 
NERRS,ioos:station:NOAA.NERRS:gndbhwq:1,2016-05-16T22:45:00Z,30.4178,-88.4054,0.0,27.4,2 
NERRS,ioos:station:NOAA.NERRS:gndbhwq:1,2016-05-16T23:45:00Z,30.4178,-88.4054,0.0,27.4,2 